Location: LDNL
(36.4545°S, 141.6685°E)
Time: 03:34:04
(UTC+11:00)

Vanguard 2 - Pass Details

Date: 13 August 2022
Orbit: 552 x 2934 km, 32.9° (Epoch: 06 October)

Event Time Altitude Azimuth Distance (km) Brightness Sun altitude
Rises 13:00:46 0° 358° (N) 6,470 13.2 38.6°
Reaches altitude 10° 13:08:38 10° 19° (NNE) 5,704 12.9 38.4°
Maximum altitude 13:15:56 14° 44° (NE) 5,420 12.4 38.1°
Drops below altitude 10° 13:23:05 10° 69° (ENE) 5,639 12.1 37.8°
Sets 13:30:33 0° 90° (E) 6,356 12.1 37.4°
